WESTFORD NEEDLES, 19059

Orbit data source: Space-Track

WESTFORD NEEDLES, 19059 is space debris in LEO originally from a launch on Thu, 09 May 1963 UTC launched from the Air Force Western Test Range (AFWTR). Debris objects in space refer to the collection of defunct objects orbiting the Earth. Examples of debris include non-operational satellites, rocket bodies, and fragments generated from explosions, collisions, or faulty payload assembly.

Loading next visibility...
Identifier
19059, 1963-014EG
Orbit
LEO
Country
Flag of USUS
Related business
Manufacturer
Unknown
Mission
Spacecraft
Bus & Motor
Unknown
Mass
Unknown
Launch date (UTC)
1963-05-09 (63 years ago)
Launch vehicle
Unknown
Launch site
Air Force Western Test Range (AFWTR)
Object type
Payload
Rocket body
Debris
Shape & HBR
Unknown shape, 1.1 m
Radar Cross Section
Medium (>0.1 m² and <1 m²)

Expand to show TLE details & history
Last TLE update: 2 weeks ago

TLE from 2 weeks ago
0 WESTFORD NEEDLES
1 19059U 63014EG  26115.16777296  .00000231  00000-0  10569+0 0  9994
2 19059  87.3566 192.4323 0026562 106.1595 254.2186  8.66533897209186
Epoch: 2026-04-25T04:01Z
TLE epoch observation values (Epoch: 2026-04-25T04:01:35.583Z)
Latitude
-0.00006°
Longitude
-81.15599°
Altitude
3,643.903 km
Speed
6.305 km/s
True Right ascension
12h 49m 43s
True Declination
0° 00' 00"
Sunlit
Object was in full shadow at epoch
Visualization orbit readout
Latitude
Unknown
Longitude
Unknown
Altitude
Unknown
Speed
Unknown
Apparent Right ascension
Unknown
Apparent Declination
Unknown
Sunlit
N/A
Visualization observer readout
Local Sidereal Time
03:59:45
Azimuth
Unknown
Elevation
Unknown
Doppler factor
Unknown
Orbital elements
Apogee altitude
3,658.826 km
Perigee altitude
3,605.647 km
Semi-major axis
10,010.374 km
Eccentricity
0.00266
Inclination
87.3566°
RAAN
192.4323°
Arg. of periapsis
106.1595°
True anomaly
253.92596°
Mean anomaly
254.2186°
Eccentric anomaly
254.07225°
Mean motion
2.16704 °/min
Orbital period
166.12 mins
BSTAR
0.10569
Loading maneuver chart data...
Computing Atmospheric mass density...

Documentation

Showing up to 5 results
|